Temperature
17 18 18 18 18 17 16 16 15 15 14 13 12 12 13 13 13 13 12 12 11 11 10 10 10 9 9 9 9 9 9 9 9 9 9 9 10 10 10 10 10 10 10 10
18 18 17 17 17 17 17 16 15 14 13 13 13 13 13 13 12 12 11 11 10 10 9 9 8 8 7 7 7 7 7 7 7 7 8 8 8 9 9 9 9 10 10 10
16 17 17 16 16 17 16 15 14 13 12 12 11 11 12 12 12 11 10 10 9 9 8 8 7 7 6 6 6 6 6 6 6 6 6 6 7 7 8 8 8 9 9 9
15 17 17 16 17 17 15 14 13 13 12 12 12 12 12 12 11 10 9 9 8 8 7 7 6 6 5 5 5 5 5 5 5 5 5 5 6 6 6 7 7 7 8 8
14 16 16 16 16 16 14 13 12 12 11 12 12 10 11 11 10 9 9 8 7 7 6 6 6 5 5 5 5 5 5 5 5 5 5 5 5 5 6 6 6 6 7 7
14 17 16 16 17 16 14 13 13 12 11 11 10 7 8 10 9 9 8 7 7 6 6 6 6 5 5 5 5 5 5 5 5 5 4 4 4 5 5 5 5 6 6 6
14 15 15 15 16 15 14 14 13 13 12 11 9 9 10 9 9 8 7 7 7 6 6 6 6 5 5 5 5 5 5 5 5 5 4 4 4 4 5 5 5 5 5 6
13 15 15 16 14 14 14 14 14 13 12 11 11 10 9 9 8 7 7 7 6 6 6 6 6 5 5 5 5 5 5 5 5 5 4 4 4 4 4 4 4 5 5 5
13 14 15 16 15 16 15 14 13 13 12 11 10 9 9 8 7 7 7 6 6 6 6 6 6 5 5 5 5 5 5 5 5 5 5 4 4 4 4 4 4 5 5 5
13 13 14 15 15 15 14 14 13 12 11 10 9 9 8 7 7 7 7 6 6 6 5 6 6 6 6 6 5 5 5 5 5 5 5 5 4 4 4 4 4 5 5 5
13 13 14 15 15 15 14 13 12 11 11 10 9 8 8 7 7 7 7 6 6 6 6 6 6 6 6 6 6 6 6 6 6 5 5 5 5 4 4 5 5 5 5 5
14 15 13 16 16 15 13 13 12 11 10 9 8 8 7 7 7 7 6 6 6 6 6 6 6 6 6 6 6 6 6 6 6 6 5 5 5 5 5 5 5 5 5 5
19 18 18 16 15 14 13 12 12 11 10 9 8 8 7 7 7 7 7 7 6 6 6 6 6 6 6 6 6 6 6 6 6 6 6 5 5 5 5 5 5 5 5 5
18 18 16 15 15 14 13 12 11 10 9 9 8 8 7 7 7 7 7 7 7 7 7 6 6 6 6 6 6 6 6 6 6 6 6 6 5 5 5 5 5 5 5 5
18 17 17 16 14 13 13 12 11 10 9 9 8 8 7 7 7 7 7 7 7 7 7 7 7 7 7 7 7 7 7 7 7 6 6 6 6 6 5 5 5 5 5 6
18 16 16 15 14 13 12 12 11 10 9 9 8 8 7 7 7 7 7 7 7 7 7 7 7 7 7 7 7 7 7 7 7 7 6 6 6 6 6 6 6 6 6 6
17 16 15 15 14 13 12 12 10 10 9 8 8 8 7 7 7 8 8 8 7 7 7 7 7 7 7 7 7 7 7 7 7 7 7 7 6 6 6 6 6 6 6 6
19 18 17 16 15 13 12 11 10 9 9 8 8 8 7 7 7 7 7 8 8 8 8 8 8 8 8 7 7 7 7 7 7 7 7 7 7 6 6 6 6 6 6 6
18 17 16 15 14 13 12 11 10 9 9 8 8 8 7 7 7 7 7 7 7 8 8 8 8 8 8 8 7 7 7 7 7 7 7 7 7 7 6 6 6 6 6 6
17 17 16 15 14 13 12 11 10 9 9 8 8 8 8 7 7 7 8 8 7 7 7 8 8 8 8 8 8 7 7 7 7 7 7 7 7 7 7 7 7 7 6 6
17 16 16 15 14 13 12 11 10 10 9 8 8 8 8 7 7 7 8 8 8 8 8 8 8 8 8 8 8 8 7 7 7 7 7 7 7 7 7 7 7 7 7 7
17 16 15 14 13 13 12 11 10 10 9 9 8 8 8 8 8 8 8 7 8 8 8 8 8 8 9 9 9 8 8 7 7 7 7 7 7 7 7 7 7 7 7 7
17 16 15 14 13 13 12 11 10 10 9 9 8 8 8 7 7 7 8 8 8 8 8 8 8 9 9 9 9 8 8 8 7 7 7 7 7 8 8 8 8 8 8 8
17 16 15 14 13 12 12 11 10 10 9 9 8 8 8 8 8 7 7 7 7 8 8 8 9 9 9 9 9 9 8 8 8 8 8 8 8 8 8 8 8 8 8 9
16 15 15 14 14 13 12 11 10 10 9 8 8 8 7 7 7 7 7 7 7 8 8 8 9 9 9 9 9 9 9 9 8 8 8 8 8 8 9 9 9 9 9 9
16 15 15 15 14 13 12 11 10 10 9 8 8 8 7 7 7 7 7 7 7 7 8 8 9 9 9 9 9 9 9 9 9 9 8 8 9 9 9 9 9 9 9 9
15 15 15 14 14 13 12 11 11 10 9 8 8 8 7 7 7 7 7 7 7 7 7 8 8 8 9 9 9 9 9 10 9 9 9 9 9 9 9 9 9 9 10 10
Wind_Speed
1 1 4 4 4 4 4 3 5 7 7 6 5 7 9 9 10 11 11 11 12 12 11 11 12 12 12 13 13 13 13 14 14 14 14 13 13 12 12 12 13 12 12 12
2 3 6 4 3 2 0 2 5 5 7 6 6 6 8 11 11 11 12 12 12 12 12 12 12 12 13 13 13 13 14 15 15 15 15 14 14 13 12 11 11 11 12 12
3 3 1 2 3 3 4 5 5 7 7 7 9 9 9 10 11 12 13 13 13 12 12 13 13 13 13 14 14 14 15 16 15 15 15 15 15 14 12 11 11 11 12 12
2 2 4 6 2 3 5 6 6 7 8 9 11 10 10 11 9 11 11 11 12 12 13 13 14 14 14 15 15 16 16 16 16 16 16 15 14 14 12 10 10 10 11 11
3 1 5 2 3 3 4 8 7 7 9 9 9 8 7 7 6 9 10 12 12 13 15 14 15 15 15 16 16 16 17 17 16 16 16 16 15 14 12 10 10 10 8 10
4 2 5 6 3 1 2 6 6 6 8 8 7 7 7 7 9 10 11 11 13 13 14 15 15 14 16 17 17 17 17 17 17 16 16 16 15 13 11 10 11 10 10 9
3 4 7 5 2 2 1 7 3 5 7 7 5 7 9 11 10 10 12 14 14 15 15 15 15 14 16 17 17 17 17 17 16 15 14 14 13 12 11 10 10 10 10 9
4 2 7 5 6 5 8 3 3 5 6 7 8 9 9 10 11 12 13 14 13 14 16 15 14 14 16 17 16 16 16 16 15 14 13 11 10 10 10 9 9 9 8 7
8 7 6 5 8 6 6 4 4 4 6 6 7 8 9 9 10 12 13 14 14 15 16 16 14 14 16 17 16 17 16 16 15 14 11 10 9 9 8 7 7 6 6 6
4 7 6 6 5 4 6 6 5 5 6 5 7 9 10 10 10 12 12 15 14 15 16 17 16 15 15 16 15 16 16 15 13 12 11 9 7 6 6 5 5 5 6 6
5 6 4 7 8 6 5 4 4 4 4 6 7 9 9 9 11 12 13 12 13 15 16 18 17 17 16 15 14 15 14 13 12 10 9 8 6 5 4 4 4 5 5 5
8 8 8 7 7 7 6 6 6 5 5 5 5 8 8 10 10 12 14 14 15 15 16 17 17 17 16 14 14 13 12 12 9 9 8 6 6 4 3 2 4 7 6 5
6 5 7 4 5 6 6 6 5 5 5 6 6 7 8 8 9 11 13 14 15 16 17 17 16 16 15 14 14 13 12 11 9 8 7 6 5 4 4 2 2 1 2 5
6 7 4 6 6 7 6 3 2 3 5 6 6 7 9 8 11 13 14 15 15 16 16 15 16 16 15 14 13 12 11 11 10 7 6 5 5 4 3 2 1 1 3 2
9 8 7 6 6 5 4 2 3 4 6 6 6 8 9 10 12 14 14 14 15 15 15 16 16 17 16 14 12 11 10 9 8 7 5 5 4 3 2 2 1 1 2 3
9 6 6 7 8 7 5 4 4 5 6 6 7 8 9 10 12 12 12 12 14 16 16 16 16 17 16 13 12 9 8 12 10 6 5 5 4 3 2 2 1 1 1 2
10 9 8 8 8 7 7 6 6 6 6 7 8 8 9 11 12 13 14 14 14 14 13 14 17 18 16 13 11 8 7 9 11 7 5 5 4 3 2 1 1 1 1 1
11 11 10 9 8 8 7 6 6 6 5 6 7 7 8 10 12 14 15 15 15 14 13 16 18 19 16 13 10 7 7 6 6 5 5 4 4 3 3 2 2 2 1 1
8 10 10 9 9 8 7 6 6 5 6 5 5 7 8 9 10 11 12 13 14 16 18 20 23 18 16 15 13 7 6 6 6 5 4 5 4 4 4 3 3 3 3 2
8 9 9 9 8 7 6 6 5 5 4 4 5 6 8 9 10 11 12 9 7 10 16 18 17 15 15 14 14 7 6 6 5 5 5 5 5 5 5 5 5 4 4 3
10 9 10 9 8 7 7 6 5 5 4 3 4 6 8 9 9 9 10 10 11 14 17 16 13 14 14 14 12 7 6 6 5 4 4 4 4 5 5 5 5 5 4 4
10 10 10 9 8 7 6 5 5 4 4 4 4 5 7 8 9 9 7 6 11 16 14 11 12 16 18 14 9 8 7 6 5 4 4 4 4 4 4 5 5 5 5 5
9 10 10 9 9 7 5 5 5 5 4 4 4 5 5 6 6 7 9 8 10 15 12 10 17 21 19 11 9 9 9 7 6 5 4 4 3 3 3 4 4 5 5 5
10 10 9 8 6 5 6 6 5 4 4 3 3 4 4 5 5 4 6 11 13 14 10 12 17 19 15 9 9 9 9 8 7 5 4 4 4 3 4 4 4 4 5 6
10 10 9 9 8 8 8 6 4 4 3 2 3 3 3 3 4 6 8 9 12 12 10 12 16 16 12 10 10 9 9 8 8 6 5 4 4 4 3 3 3 4 4 4
11 11 11 11 10 7 6 6 5 4 4 3 3 2 3 3 5 5 6 8 11 11 10 9 11 12 10 10 10 10 9 9 9 8 7 5 4 4 3 3 4 3 3 4
10 8 7 7 6 7 7 7 6 6 6 4 3 2 2 3 4 6 7 7 8 8 8 9 9 9 10 10 10 10 9 9 8 8 7 6 5 4 3 3 3 3 3 4
Wind_Direction
78 72 103 89 64 64 92 168 218 260 262 250 264 281 286 289 295 300 300 297 296 296 296 295 297 298 298 297 297 297 296 292 288 285 282 278 271 262 253 244 240 232 229 228
57 69 88 79 45 55 99 253 254 269 269 248 277 286 285 287 291 293 295 296 297 298 299 299 300 300 299 297 296 295 293 292 292 290 287 283 279 272 262 252 243 231 227 226
200 217 344 262 225 224 242 237 225 242 256 289 295 289 281 284 291 295 298 300 299 299 297 297 297 299 299 296 297 294 292 291 290 289 287 283 282 279 269 261 252 239 230 225
129 103 250 250 231 209 231 241 217 232 259 276 271 276 277 278 282 289 294 296 297 297 297 296 297 299 297 298 298 296 294 291 290 288 286 282 278 275 270 264 258 249 238 228
113 211 282 248 207 185 229 266 216 232 262 274 292 315 293 276 280 283 289 293 295 296 298 299 300 302 303 303 301 299 297 294 291 287 284 280 276 271 268 263 259 254 245 231
122 183 253 244 212 235 178 286 223 230 267 284 317 321 291 294 306 299 297 297 298 300 302 303 305 306 307 306 305 303 301 298 294 288 284 279 274 270 266 258 255 253 245 234
155 225 263 240 204 91 199 270 228 235 264 277 260 247 274 300 300 292 295 299 302 306 308 308 308 309 309 309 307 307 305 302 298 293 286 279 272 267 263 257 254 248 241 233
155 210 267 203 150 185 223 240 247 257 264 268 268 276 289 297 296 301 305 307 310 311 312 312 312 313 313 311 310 310 309 307 305 300 293 289 277 270 261 254 249 243 235 232
188 213 239 209 205 213 181 212 246 252 270 280 284 287 294 292 296 302 307 311 313 314 315 316 316 316 314 313 314 314 314 313 311 307 301 293 284 277 266 250 238 234 227 228
231 256 238 228 226 215 195 215 246 264 280 280 278 284 292 294 300 308 310 315 315 318 319 320 320 318 313 312 315 318 318 318 316 314 312 306 295 281 265 246 233 226 221 222
241 264 253 251 230 219 214 231 265 283 272 268 273 285 288 298 306 312 314 314 316 320 320 319 321 319 318 318 320 321 320 320 321 319 316 315 312 301 278 253 233 225 223 215
219 214 193 232 221 195 203 231 251 265 276 278 275 282 293 301 304 310 314 317 321 322 322 321 321 320 320 322 323 323 324 325 323 323 322 321 321 325 323 283 263 240 230 218
206 185 181 209 181 178 195 223 242 254 267 284 290 289 295 300 302 310 316 322 325 323 321 320 321 321 323 325 326 325 323 321 320 323 326 329 329 326 325 351 45 56 239 230
175 137 160 189 191 191 193 211 248 279 284 283 284 294 301 302 309 319 323 324 322 320 320 322 324 325 326 326 325 325 324 324 327 322 325 327 328 326 322 328 349 34 43 54
188 180 186 184 171 173 181 205 256 286 291 295 292 300 309 315 319 320 320 322 323 324 327 328 328 328 328 326 325 323 324 325 325 324 327 327 327 330 337 355 39 59 63 57
178 168 161 165 183 193 200 224 248 271 281 288 297 306 311 312 313 316 320 326 330 328 326 327 328 328 328 327 325 322 323 329 337 333 338 344 345 353 8 24 38 63 88 105
152 178 190 199 205 207 212 222 233 253 272 286 295 306 316 322 326 330 332 332 327 320 321 330 331 330 330 330 326 323 323 328 337 339 344 345 348 355 4 10 19 47 116 140
182 183 178 180 188 202 218 230 240 254 264 278 299 313 322 326 327 327 328 329 331 333 339 340 336 333 332 334 333 327 326 328 333 338 346 358 2 7 12 17 19 37 59 86
174 172 175 177 176 181 199 220 236 250 269 287 303 310 310 313 316 320 325 331 339 342 340 336 331 335 337 337 339 329 332 338 346 352 357 3 15 23 30 33 34 41 59 83
170 166 167 171 174 181 199 216 232 251 270 285 299 311 319 322 325 327 329 327 330 333 329 329 333 338 339 338 341 337 339 347 354 1 12 20 27 30 33 36 37 43 53 63
172 167 169 176 186 198 206 208 216 241 268 282 291 303 310 315 322 327 332 334 337 339 336 332 341 342 339 336 336 347 351 356 4 11 21 28 34 36 34 36 39 40 42 47
174 173 178 181 187 203 213 211 214 231 255 276 291 304 315 321 326 326 317 313 326 334 338 340 345 341 341 340 352 356 359 2 6 14 20 30 41 43 36 36 38 38 40 46
174 176 179 184 193 202 209 215 217 221 233 253 280 301 309 309 313 323 330 329 333 335 339 341 341 343 346 355 1 3 6 9 11 15 19 29 41 51 50 46 43 42 42 44
175 179 183 181 172 183 212 225 221 220 223 238 263 289 302 312 314 304 311 319 331 335 340 338 342 350 355 2 5 8 9 8 7 10 22 33 41 51 54 55 53 47 45 46
177 176 175 178 188 204 215 211 206 215 220 243 274 299 309 300 303 316 326 332 338 343 345 345 350 356 5 5 5 7 8 7 6 5 18 31 41 51 56 59 62 59 52 47
182 188 194 200 201 196 189 184 192 203 207 230 260 289 316 322 324 329 335 340 346 347 352 355 358 1 6 6 6 8 9 7 9 12 12 18 31 45 51 53 56 57 51 42
197 196 195 202 198 187 184 184 188 197 198 203 227 265 310 328 337 345 349 352 355 357 358 1 3 6 7 8 9 10 12 12 11 11 11 12 17 27 36 44 46 47 44 42
Height
1519 1515 1516 1518 1520 1520 1522 1524 1530 1526 1522 1518 1517 1515 1511 1508 1505 1501 1498 1494 1490 1485 1480 1475 1469 1464 1458 1453 1448 1442 1437 1432 1428 1425 1421 1419 1416 1415 1414 1414 1415 1416 1417 1419
1521 1518 1519 1522 1521 1520 1521 1521 1521 1522 1521 1514 1513 1511 1509 1505 1501 1498 1494 1490 1485 1480 1474 1468 1462 1456 1450 1444 1439 1434 1428 1423 1418 1414 1410 1407 1405 1403 1403 1403 1404 1405 1406 1409
1529 1522 1524 1528 1522 1520 1520 1519 1520 1523 1519 1512 1511 1508 1505 1501 1497 1494 1490 1485 1480 1474 1468 1462 1456 1449 1442 1436 1431 1425 1420 1414 1410 1405 1401 1397 1395 1392 1391 1392 1393 1394 1396 1398
1530 1528 1533 1525 1515 1515 1517 1516 1515 1515 1513 1511 1508 1504 1501 1498 1494 1490 1485 1480 1474 1468 1461 1455 1449 1442 1436 1429 1423 1417 1411 1406 1401 1396 1391 1387 1384 1382 1381 1381 1382 1383 1386 1388
1533 1531 1527 1520 1514 1514 1517 1517 1512 1512 1510 1508 1504 1500 1496 1494 1491 1486 1481 1476 1469 1462 1455 1448 1442 1435 1428 1422 1416 1410 1403 1397 1392 1387 1382 1378 1375 1372 1372 1372 1372 1373 1375 1379
1531 1529 1531 1520 1511 1511 1514 1516 1509 1508 1507 1505 1502 1502 1494 1490 1486 1481 1476 1470 1463 1455 1448 1442 1435 1429 1422 1415 1409 1402 1396 1390 1384 1379 1373 1369 1366 1364 1363 1362 1363 1364 1366 1369
1529 1529 1523 1511 1509 1511 1520 1515 1506 1505 1503 1502 1500 1497 1491 1486 1482 1477 1471 1464 1457 1449 1442 1436 1429 1423 1416 1409 1403 1396 1390 1383 1377 1371 1366 1361 1357 1355 1354 1354 1355 1356 1358 1361
1531 1529 1524 1506 1507 1510 1509 1503 1503 1502 1500 1498 1495 1491 1487 1482 1477 1471 1464 1457 1451 1444 1436 1430 1424 1417 1411 1404 1398 1391 1384 1377 1370 1364 1359 1354 1351 1349 1348 1347 1348 1349 1351 1354
1516 1515 1504 1502 1502 1501 1501 1500 1500 1498 1496 1494 1491 1487 1483 1478 1472 1466 1460 1453 1446 1439 1432 1425 1419 1413 1406 1399 1393 1386 1379 1372 1365 1359 1354 1350 1346 1344 1342 1342 1342 1344 1346 1348
1508 1503 1500 1499 1499 1499 1498 1498 1497 1495 1493 1490 1487 1484 1479 1474 1468 1462 1455 1448 1441 1434 1427 1421 1415 1409 1403 1396 1389 1382 1375 1368 1362 1356 1351 1346 1343 1340 1338 1337 1338 1340 1342 1345
1503 1499 1497 1496 1495 1495 1495 1495 1494 1492 1490 1487 1484 1480 1476 1470 1464 1458 1451 1444 1438 1431 1424 1417 1411 1405 1399 1393 1386 1379 1373 1367 1360 1355 1349 1345 1341 1338 1336 1336 1336 1338 1340 1342
1498 1491 1492 1491 1491 1492 1492 1492 1491 1489 1487 1484 1481 1477 1472 1466 1461 1455 1448 1441 1435 1428 1422 1415 1408 1402 1396 1390 1384 1378 1371 1365 1360 1354 1350 1345 1342 1339 1337 1336 1336 1337 1338 1340
1487 1487 1488 1488 1488 1489 1489 1489 1488 1486 1484 1481 1478 1474 1469 1463 1457 1451 1445 1439 1432 1426 1419 1413 1406 1399 1393 1388 1382 1377 1371 1366 1360 1355 1350 1346 1343 1340 1338 1337 1336 1336 1337 1339
1484 1485 1485 1485 1486 1486 1487 1486 1485 1483 1481 1478 1475 1471 1466 1460 1454 1448 1442 1436 1430 1424 1418 1411 1404 1397 1391 1386 1381 1376 1371 1366 1361 1356 1352 1348 1344 1341 1339 1337 1337 1337 1337 1338
1480 1482 1483 1483 1483 1484 1484 1483 1482 1480 1478 1475 1472 1468 1463 1457 1451 1446 1440 1434 1428 1422 1416 1409 1402 1396 1390 1384 1379 1375 1370 1366 1361 1357 1353 1349 1346 1343 1340 1339 1338 1338 1338 1338
1476 1478 1479 1480 1480 1481 1481 1480 1479 1477 1475 1472 1469 1465 1460 1455 1449 1444 1438 1433 1426 1420 1414 1407 1401 1394 1388 1383 1378 1374 1370 1366 1362 1358 1354 1350 1347 1344 1342 1341 1340 1339 1339 1339
1472 1474 1475 1476 1477 1478 1478 1478 1476 1474 1472 1470 1466 1462 1457 1452 1447 1441 1436 1431 1425 1420 1414 1407 1400 1394 1388 1382 1377 1373 1369 1366 1363 1359 1355 1352 1349 1346 1344 1343 1341 1340 1340 1341
1468 1470 1472 1473 1474 1475 1475 1474 1473 1472 1470 1467 1464 1460 1455 1450 1445 1439 1434 1429 1424 1418 1413 1407 1400 1394 1388 1382 1377 1373 1369 1366 1363 1360 1357 1354 1351 1349 1347 1345 1343 1342 1342 1342
1465 1467 1469 1470 1471 1472 1472 1471 1470 1469 1467 1465 1461 1458 1454 1449 1444 1438 1433 1428 1423 1417 1411 1406 1400 1394 1388 1383 1378 1374 1370 1367 1364 1362 1359 1357 1354 1352 1350 1348 1347 1346 1345 1345
1462 1464 1466 1467 1468 1469 1468 1468 1467 1466 1465 1462 1459 1455 1451 1447 1442 1437 1432 1428 1423 1418 1412 1407 1401 1395 1389 1384 1379 1375 1371 1368 1366 1364 1362 1360 1358 1356 1354 1352 1351 1350 1349 1349
1459 1461 1463 1464 1465 1466 1466 1465 1465 1464 1462 1460 1457 1453 1449 1445 1440 1436 1430 1426 1422 1418 1413 1408 1402 1396 1391 1386 1381 1377 1373 1370 1368 1366 1364 1363 1362 1360 1359 1358 1356 1355 1354 1354
1455 1458 1460 1462 1463 1463 1463 1462 1462 1461 1460 1458 1455 1452 1448 1443 1439 1435 1431 1426 1421 1417 1413 1408 1403 1398 1393 1389 1384 1379 1376 1373 1370 1369 1367 1366 1365 1364 1363 1363 1362 1361 1360 1360
1452 1455 1457 1459 1460 1460 1460 1460 1459 1458 1457 1455 1453 1450 1446 1442 1437 1433 1428 1425 1421 1417 1413 1409 1405 1400 1396 1391 1387 1383 1379 1376 1374 1372 1370 1370 1369 1369 1369 1368 1368 1368 1368 1367
1449 1452 1454 1455 1456 1456 1457 1457 1457 1456 1454 1453 1451 1448 1444 1440 1436 1432 1428 1424 1420 1417 1413 1410 1406 1402 1398 1394 1390 1386 1383 1380 1377 1376 1375 1374 1373 1373 1373 1374 1374 1374 1375 1375
1445 1447 1450 1451 1451 1452 1453 1453 1453 1453 1452 1450 1449 1446 1443 1439 1435 1431 1427 1423 1420 1416 1413 1410 1407 1403 1399 1396 1393 1389 1387 1384 1382 1380 1379 1378 1377 1378 1378 1379 1380 1380 1381 1382
1439 1441 1442 1444 1445 1446 1447 1448 1449 1449 1449 1448 1446 1444 1441 1438 1434 1430 1426 1423 1419 1416 1413 1410 1407 1404 1401 1398 1396 1393 1390 1388 1386 1384 1383 1382 1382 1382 1383 1384 1385 1386 1386 1387
1433 1434 1436 1437 1438 1440 1442 1442 1444 1445 1445 1445 1443 1442 1439 1436 1432 1429 1425 1422 1419 1416 1413 1410 1408 1405 1403 1400 1398 1396 1393 1391 1390 1388 1387 1387 1386 1386 1387 1388 1389 1390 1391 1392